Puyallup, WA

11:41 PM PST on December 17, 2017 (GMT -0800)
Pierce County - Thun Field

Weather History for KPLU - March, 2013

Change the Weather History Date:

Monday, March 4, 2013

  Actual Average (KTCM) Record (KTCM)
Temperature  
Mean Temperature 38 °F -  
Max Temperature 53 °F 48 °F 66 °F (1987)
Min Temperature 24 °F 32 °F 14 °F (1955)
Degree Days  
Heating Degree Days 26    
Moisture  
Dew Point 29 °F    
Average Humidity 79    
Maximum Humidity 100    
Minimum Humidity 34    
Precipitation  
Precipitation 0.00 in - - ()
Sea Level Pressure  
Sea Level Pressure 30.11 in    
Wind  
Wind Speed 0 mph (North)    
Max Wind Speed 7 mph    
Max Gust Speed -    
Visibility 10 miles    
Events      
Averages and records for this station are not official NWS values.
T = Trace of Precipitation, MM = Missing Value Source: NWS Daily Summary

Daily Weather History Graph

Daily Weather History Graph

Search for Another Location

Airport or City:

Trip Planner

Search our weather history database for the weather conditions in past years. The results will help you decide how hot, cold, wet, or windy it might be!

Date:

Astronomy

Mar. 04, 2013 Rise Set
Actual Time 6:42 AM PST 5:59 PM PST
Civil Twilight 6:12 AM PST 6:30 PM PST
Nautical Twilight 5:37 AM PST 7:05 PM PST
Astronomical Twilight 5:01 AM PST 7:40 PM PST
Moon 1:14 AM PST (3/4) 10:29 AM PST (3/4)
Length of Visible Light 12h 17m
Length of Day
11h 16m
Waning Gibbous, 51% of the Moon is Illuminated
Mar 4
Waning Gibbous
Mar 4
Last Quarter
Mar 11
New
Mar 19
First Quarter
Mar 27
Full

Hourly Weather History & Observations

Time (PST) Temp. Dew Point Humidity Pressure Visibility Wind Dir Wind Speed Gust Speed Precip Events Conditions
12:15 AM 28.4 °F 28.4 °F 100% 30.29 in 10.0 mi Calm Calm - N/A   Scattered Clouds
12:35 AM 28.4 °F 28.4 °F 100% 30.29 in 10.0 mi Calm Calm - N/A   Scattered Clouds
1:15 AM 28.4 °F 28.4 °F 100% 30.28 in 10.0 mi Calm Calm - N/A   Mostly Cloudy
1:35 AM 26.6 °F 26.6 °F 100% 30.28 in 10.0 mi Calm Calm - N/A   Mostly Cloudy
1:55 AM 28.4 °F 28.4 °F 100% 30.28 in 10.0 mi Calm Calm - N/A   Mostly Cloudy
2:15 AM 26.6 °F 26.6 °F 100% 30.27 in 10.0 mi Calm Calm - N/A   Mostly Cloudy
2:55 AM 26.6 °F 26.6 °F 100% 30.26 in 10.0 mi Calm Calm - N/A   Mostly Cloudy
3:15 AM 26.6 °F 26.6 °F 100% 30.26 in 10.0 mi Calm Calm - N/A   Mostly Cloudy
3:35 AM 24.8 °F 24.8 °F 100% 30.26 in 10.0 mi Calm Calm - N/A   Mostly Cloudy
4:15 AM 24.8 °F 24.8 °F 100% 30.25 in 10.0 mi Calm Calm - N/A   Scattered Clouds
4:35 AM 26.6 °F 26.6 °F 100% 30.25 in 10.0 mi Calm Calm - N/A   Mostly Cloudy
4:55 AM 26.6 °F 26.6 °F 100% 30.25 in 10.0 mi Calm Calm - N/A   Mostly Cloudy
5:15 AM 24.8 °F 24.8 °F 100% 30.25 in 10.0 mi Calm Calm - N/A   Mostly Cloudy
5:35 AM 26.6 °F 26.6 °F 100% 30.24 in 10.0 mi Calm Calm - N/A   Mostly Cloudy
5:55 AM 24.8 °F 24.8 °F 100% 30.24 in 10.0 mi Calm Calm - N/A   Mostly Cloudy
6:15 AM 24.8 °F 24.8 °F 100% 30.23 in 10.0 mi Calm Calm - N/A   Mostly Cloudy
6:35 AM 24.8 °F 24.8 °F 100% 30.23 in 10.0 mi Calm Calm - N/A   Mostly Cloudy
6:55 AM 24.8 °F 24.8 °F 100% 30.22 in 10.0 mi Calm Calm - N/A   Mostly Cloudy
7:15 AM 26.6 °F 26.6 °F 100% 30.22 in 10.0 mi Calm Calm - N/A   Scattered Clouds
7:35 AM 26.6 °F 26.6 °F 100% 30.22 in 10.0 mi Calm Calm - N/A   Mostly Cloudy
7:55 AM 28.4 °F 28.4 °F 100% 30.22 in 10.0 mi Calm Calm - N/A   Scattered Clouds
8:15 AM 28.4 °F 28.4 °F 100% 30.22 in 10.0 mi Calm Calm - N/A   Scattered Clouds
8:35 AM 32.0 °F 32.0 °F 100% 30.21 in 10.0 mi Calm Calm - N/A   Scattered Clouds
8:55 AM 32.0 °F 32.0 °F 100% 30.21 in 10.0 mi Calm Calm - N/A   Mostly Cloudy
9:15 AM 32.0 °F 32.0 °F 100% 30.21 in 10.0 mi Calm Calm - N/A   Mostly Cloudy
9:35 AM 33.8 °F 32.0 °F 93% 30.20 in 10.0 mi Calm Calm - N/A   Mostly Cloudy
9:55 AM 37.4 °F 32.0 °F 81% 30.20 in 10.0 mi Calm Calm - N/A   Mostly Cloudy
10:15 AM 39.2 °F 32.0 °F 75% 30.19 in 10.0 mi Calm Calm - N/A   Mostly Cloudy
10:35 AM 41.0 °F 30.2 °F 65% 30.19 in 10.0 mi Calm Calm - N/A   Mostly Cloudy
11:15 AM 44.6 °F 28.4 °F 53% 30.17 in 10.0 mi Calm Calm - N/A   Mostly Cloudy
11:35 AM 44.6 °F 28.4 °F 53% 30.16 in 10.0 mi Calm Calm - N/A   Mostly Cloudy
12:15 PM 48.2 °F 21.2 °F 34% 30.13 in 10.0 mi North 3.5 mph - N/A   Scattered Clouds
12:35 PM 48.2 °F 23.0 °F 37% 30.12 in 10.0 mi North 3.5 mph - N/A   Mostly Cloudy
12:55 PM 48.2 °F 24.8 °F 40% 30.11 in 10.0 mi North 4.6 mph - N/A   Scattered Clouds
1:15 PM 48.2 °F 26.6 °F 43% 30.10 in 10.0 mi NNW 4.6 mph - N/A   Mostly Cloudy
1:35 PM 50.0 °F 24.8 °F 37% 30.08 in 10.0 mi Calm Calm - N/A   Mostly Cloudy
1:55 PM 51.8 °F 24.8 °F 35% 30.07 in 10.0 mi North 5.8 mph - N/A   Mostly Cloudy
2:15 PM 51.8 °F 26.6 °F 38% 30.07 in 10.0 mi North 4.6 mph - N/A   Mostly Cloudy
2:35 PM 51.8 °F 28.4 °F 41% 30.05 in 10.0 mi North 5.8 mph - N/A   Mostly Cloudy
2:55 PM 53.6 °F 28.4 °F 38% 30.04 in 10.0 mi Calm Calm - N/A   Mostly Cloudy
3:35 PM 53.6 °F 28.4 °F 38% 30.02 in 10.0 mi Calm Calm - N/A   Mostly Cloudy
3:55 PM 53.6 °F 28.4 °F 38% 30.01 in 10.0 mi Calm Calm - N/A   Scattered Clouds
4:15 PM 53.6 °F 28.4 °F 38% 30.00 in 10.0 mi North 4.6 mph - N/A   Scattered Clouds
4:35 PM 50.0 °F 30.2 °F 47% 29.99 in 10.0 mi NNW 6.9 mph - N/A   Scattered Clouds
4:55 PM 50.0 °F 30.2 °F 47% 29.99 in 10.0 mi NNW 4.6 mph - N/A   Scattered Clouds
5:15 PM 50.0 °F 30.2 °F 47% 29.99 in 10.0 mi Calm Calm - N/A   Mostly Cloudy
5:35 PM 48.2 °F 32.0 °F 54% 29.99 in 10.0 mi Calm Calm - N/A   Scattered Clouds
5:55 PM 44.6 °F 32.0 °F 61% 29.98 in 10.0 mi Calm Calm - N/A   Scattered Clouds
6:15 PM 41.0 °F 32.0 °F 70% 29.97 in 10.0 mi Calm Calm - N/A   Mostly Cloudy
6:35 PM 39.2 °F 32.0 °F 75% 29.97 in 10.0 mi Calm Calm - N/A   Mostly Cloudy
7:15 PM 37.4 °F 32.0 °F 81% 29.96 in 10.0 mi Calm Calm - N/A   Scattered Clouds
7:35 PM 37.4 °F 32.0 °F 81% 29.96 in 10.0 mi Calm Calm - N/A   Partly Cloudy
7:55 PM 37.4 °F 32.0 °F 81% 29.95 in 10.0 mi Calm Calm - N/A   Partly Cloudy
8:15 PM 35.6 °F 32.0 °F 87% 29.95 in 10.0 mi Calm Calm - N/A   Scattered Clouds
8:35 PM 35.6 °F 32.0 °F 87% 29.94 in 10.0 mi Calm Calm - N/A   Partly Cloudy
8:55 PM 33.8 °F 32.0 °F 93% 29.94 in 10.0 mi Calm Calm - N/A   Partly Cloudy
9:35 PM 35.6 °F 32.0 °F 87% 29.95 in 10.0 mi Calm Calm - N/A   Scattered Clouds
9:55 PM 33.8 °F 32.0 °F 93% 29.94 in 10.0 mi Calm Calm - N/A   Mostly Cloudy
10:15 PM 32.0 °F 32.0 °F 100% 29.94 in 10.0 mi Calm Calm - N/A   Mostly Cloudy
10:35 PM 32.0 °F 32.0 °F 100% 29.93 in 10.0 mi Calm Calm - N/A   Mostly Cloudy
10:55 PM 32.0 °F 32.0 °F 100% 29.93 in 10.0 mi Calm Calm - N/A   Scattered Clouds
11:15 PM 32.0 °F 32.0 °F 100% 29.92 in 10.0 mi Calm Calm - N/A   Scattered Clouds
11:35 PM 32.0 °F 30.2 °F 93% 29.91 in 10.0 mi Calm Calm - N/A   Mostly Cloudy
11:55 PM 32.0 °F 32.0 °F 100% 29.91 in 10.0 mi Calm Calm - N/A   Mostly Cloudy